Погода в Кандаве

Латвия     57°02′11″N   22°46′37″E
В апреле 2022 года жителям России запретили посещать сайт meteo.paraplan.net по решению Генеральной прокуратуры. Аудитория сайта уменьшилась в 10 раз. Владельцы сайта не видят смысла в поддержке погодного сервера в таких условиях. Сайт будет закрыт в октябре.
темп.,
°C
ветер,
м/с
пор.,
м/с
влажн.,
%
обл.,
%
осадки,
мм/ч
давл.,
гПа
погр.,
м
3 октября, пн
пн300:00+8в51191100 6.5 1005602
03:00+8в3988100 7.1 1006428
06:00+5ссв3893100 0.0 1007191
09:00+8с51187100 0.0 1008805
12:00+11с7127321 0.0 10081290
15:00+12с81467100 0.1 10081502
18:00+11ссз71568100 0.0 10071471
21:00+10ссз71471100 0.0 10071256
4 октября, вт
вт400:00+10ссз71477100 0.0 10061200
03:00+9ссз71477100 0.0 10051149
06:00+10ссз61377100 0.0 10051146
09:00+10ссз61374100 0.0 10061102
12:00+13сз713615 0.0 10071314
15:00+14сз712584 0.0 10081434
18:00+11сз611759 0.0 10101081
21:00+9зсз4119095 0.1 1012520
5 октября, ср
ср500:00+7з39965 0.0 1013204
03:00+7зюз389499 0.0 1013164
06:00+9юз3793100 0.3 1012199
09:00+11юз41095100 0.3 1012392
12:00+14юз51081100 0.0 1011931
15:00+16зюз61173100 0.1 10111028
18:00+13зюз61288100 0.1 1011735
21:00+13юз61393100 0.4 1011648
6 октября, чт
чт600:00+12юз61589100 0.0 1011627
03:00+12юз5158513 0.0 1010594
06:00+11юз515900 0.0 1009546
09:00+13юз61489100 0.0 1009957
12:00+15з714676 0.1 10121353
15:00+15зюз815610 0.2 10141617
18:00+12зюз715716 0.0 10161152
21:00+12зюз715780 0.0 10171009
7 октября, пт
пт700:00+12зюз8167528 0.0 10181161
03:00+12зюз8167517 0.0 10181112
06:00+11з715802 0.0 10181006
09:00+11зюз6138110 0.0 1019897
12:00+14зюз6106641 0.0 10201299
15:00+16зюз7126282 0.1 10181401
18:00+13юз7127893 0.0 10181052
21:00+11юз6158237 0.0 1017818